Year,Month,Day,Hour,Minute,Value (Times are PST for temperature in C)
2011,08,16,00,00,9.60
2011,08,16,00,01,9.60
2011,08,16,00,02,9.60
2011,08,16,00,03,9.60
2011,08,16,00,04,9.60
2011,08,16,00,05,9.60
2011,08,16,00,06,9.60
2011,08,16,00,07,9.60
2011,08,16,00,08,9.50
2011,08,16,00,09,9.50
2011,08,16,00,10,9.50
2011,08,16,00,11,9.50
2011,08,16,00,12,9.40
2011,08,16,00,13,9.40
2011,08,16,00,14,9.40
2011,08,16,00,15,9.40
2011,08,16,00,16,9.40
2011,08,16,00,17,9.30
2011,08,16,00,18,9.30
2011,08,16,00,19,9.30
2011,08,16,00,20,9.30
2011,08,16,00,21,9.30
2011,08,16,00,22,9.30
2011,08,16,00,23,9.30
2011,08,16,00,24,9.30
2011,08,16,00,25,9.30
2011,08,16,00,26,9.20
2011,08,16,00,27,9.20
2011,08,16,00,28,9.20
2011,08,16,00,29,9.20
2011,08,16,00,30,9.20
2011,08,16,00,31,9.20
2011,08,16,00,32,9.20
2011,08,16,00,33,9.20
2011,08,16,00,34,9.20
2011,08,16,00,35,9.20
2011,08,16,00,36,9.20
2011,08,16,00,37,9.20
2011,08,16,00,38,9.20
2011,08,16,00,39,9.20
2011,08,16,00,40,9.20
2011,08,16,00,41,9.10
2011,08,16,00,42,9.10
2011,08,16,00,43,9.10
2011,08,16,00,44,9.10
2011,08,16,00,45,9.10
2011,08,16,00,46,9.10
2011,08,16,00,47,9.10
2011,08,16,00,48,9.10
2011,08,16,00,49,9.10
2011,08,16,00,50,9.10
2011,08,16,00,51,9.10
2011,08,16,00,52,9.00
2011,08,16,00,53,9.00
2011,08,16,00,54,9.00
2011,08,16,00,55,9.00
2011,08,16,00,56,9.00
2011,08,16,00,57,8.90
2011,08,16,00,58,8.90
2011,08,16,00,59,8.90
2011,08,16,01,00,8.90
2011,08,16,01,01,8.90
2011,08,16,01,02,8.90
2011,08,16,01,03,8.80
2011,08,16,01,04,8.80
2011,08,16,01,05,8.80
2011,08,16,01,06,8.80
2011,08,16,01,07,8.80
2011,08,16,01,08,8.80
2011,08,16,01,09,8.80
2011,08,16,01,10,8.70
2011,08,16,01,11,8.70
2011,08,16,01,12,8.70
2011,08,16,01,13,8.70
2011,08,16,01,14,8.70
2011,08,16,01,15,8.70
2011,08,16,01,16,8.70
2011,08,16,01,17,8.70
2011,08,16,01,18,8.70
2011,08,16,01,19,8.70
2011,08,16,01,20,8.70
2011,08,16,01,21,8.70
2011,08,16,01,22,8.70
2011,08,16,01,23,8.70
2011,08,16,01,24,8.70
2011,08,16,01,25,8.70
2011,08,16,01,26,8.70
2011,08,16,01,27,8.70
2011,08,16,01,28,8.70
2011,08,16,01,29,8.70
2011,08,16,01,30,8.60
2011,08,16,01,31,8.60
2011,08,16,01,32,8.60
2011,08,16,01,33,8.60
2011,08,16,01,34,8.60
2011,08,16,01,35,8.60
2011,08,16,01,36,8.60
2011,08,16,01,37,8.60
2011,08,16,01,38,8.60
2011,08,16,01,39,8.60
2011,08,16,01,40,8.60
2011,08,16,01,41,8.60
2011,08,16,01,42,8.60
2011,08,16,01,43,8.60
2011,08,16,01,44,8.60
2011,08,16,01,45,8.60
2011,08,16,01,46,8.50
2011,08,16,01,47,8.50
2011,08,16,01,48,8.50
2011,08,16,01,49,8.50
2011,08,16,01,50,8.50
2011,08,16,01,51,8.50
2011,08,16,01,52,8.50
2011,08,16,01,53,8.50
2011,08,16,01,54,8.50
2011,08,16,01,55,8.50
2011,08,16,01,56,8.50
2011,08,16,01,57,8.50
2011,08,16,01,58,8.50
2011,08,16,01,59,8.50
2011,08,16,02,00,8.50
2011,08,16,02,01,8.50
2011,08,16,02,02,8.40
2011,08,16,02,03,8.40
2011,08,16,02,04,8.40
2011,08,16,02,05,8.30
2011,08,16,02,06,8.30
2011,08,16,02,07,8.30
2011,08,16,02,08,8.30
2011,08,16,02,09,8.30
2011,08,16,02,10,8.20
2011,08,16,02,11,8.20
2011,08,16,02,12,8.20
2011,08,16,02,13,8.20
2011,08,16,02,14,8.20
2011,08,16,02,15,8.20
2011,08,16,02,16,8.20
2011,08,16,02,17,8.20
2011,08,16,02,18,8.20
2011,08,16,02,19,8.20
2011,08,16,02,20,8.20
2011,08,16,02,21,8.20
2011,08,16,02,22,8.10
2011,08,16,02,23,8.10
2011,08,16,02,24,8.10
2011,08,16,02,25,8.10
2011,08,16,02,26,8.10
2011,08,16,02,27,8.10
2011,08,16,02,28,8.10
2011,08,16,02,29,8.10
2011,08,16,02,30,8.10
2011,08,16,02,31,8.10
2011,08,16,02,32,8.10
2011,08,16,02,33,8.10
2011,08,16,02,34,8.10
2011,08,16,02,35,8.10
2011,08,16,02,36,8.10
2011,08,16,02,37,8.10
2011,08,16,02,38,8.10
2011,08,16,02,39,8.10
2011,08,16,02,40,8.00
2011,08,16,02,41,8.00
2011,08,16,02,42,8.00
2011,08,16,02,43,8.00
2011,08,16,02,44,7.90
2011,08,16,02,45,7.90
2011,08,16,02,46,7.90
2011,08,16,02,47,7.90
2011,08,16,02,48,7.90
2011,08,16,02,49,7.90
2011,08,16,02,50,7.90
2011,08,16,02,51,7.90
2011,08,16,02,52,7.90
2011,08,16,02,53,7.90
2011,08,16,02,54,7.90
2011,08,16,02,55,7.90
2011,08,16,02,56,7.90
2011,08,16,02,57,7.90
2011,08,16,02,58,7.90
2011,08,16,02,59,7.90
2011,08,16,03,00,7.90
2011,08,16,03,01,7.90
2011,08,16,03,02,7.90
2011,08,16,03,03,7.90
2011,08,16,03,04,7.90
2011,08,16,03,05,7.80
2011,08,16,03,06,7.80
2011,08,16,03,07,7.80
2011,08,16,03,08,7.80
2011,08,16,03,09,7.80
2011,08,16,03,10,7.80
2011,08,16,03,11,7.80
2011,08,16,03,12,7.80
2011,08,16,03,13,7.80
2011,08,16,03,14,7.80
2011,08,16,03,15,7.80
2011,08,16,03,16,7.80
2011,08,16,03,17,7.80
2011,08,16,03,18,7.70
2011,08,16,03,19,7.70
2011,08,16,03,20,7.70
2011,08,16,03,21,7.70
2011,08,16,03,22,7.70
2011,08,16,03,23,7.70
2011,08,16,03,24,7.70
2011,08,16,03,25,7.70
2011,08,16,03,26,7.70
2011,08,16,03,27,7.70
2011,08,16,03,28,7.70
2011,08,16,03,29,7.70
2011,08,16,03,30,7.60
2011,08,16,03,31,7.60
2011,08,16,03,32,7.60
2011,08,16,03,33,7.60
2011,08,16,03,34,7.60
2011,08,16,03,35,7.50
2011,08,16,03,36,7.50
2011,08,16,03,37,7.50
2011,08,16,03,38,7.50
2011,08,16,03,39,7.40
2011,08,16,03,40,7.40
2011,08,16,03,41,7.40
2011,08,16,03,42,7.40
2011,08,16,03,43,7.40
2011,08,16,03,44,7.40
2011,08,16,03,45,7.40
2011,08,16,03,46,7.30
2011,08,16,03,47,7.30
2011,08,16,03,48,7.30
2011,08,16,03,49,7.30
2011,08,16,03,50,7.30
2011,08,16,03,51,7.30
2011,08,16,03,52,7.30
2011,08,16,03,53,7.30
2011,08,16,03,54,7.30
2011,08,16,03,55,7.30
2011,08,16,03,56,7.40
2011,08,16,03,57,7.40
2011,08,16,03,58,7.40
2011,08,16,03,59,7.40
2011,08,16,04,00,7.40
2011,08,16,04,01,7.40
2011,08,16,04,02,7.40
2011,08,16,04,03,7.40
2011,08,16,04,04,7.30
2011,08,16,04,05,7.30
2011,08,16,04,06,7.30
2011,08,16,04,07,7.30
2011,08,16,04,08,7.30
2011,08,16,04,09,7.30
2011,08,16,04,10,7.30
2011,08,16,04,11,7.30
2011,08,16,04,12,7.20
2011,08,16,04,13,7.20
2011,08,16,04,14,7.20
2011,08,16,04,15,7.20
2011,08,16,04,16,7.20
2011,08,16,04,17,7.20
2011,08,16,04,18,7.20
2011,08,16,04,19,7.20
2011,08,16,04,20,7.20
2011,08,16,04,21,7.20
2011,08,16,04,22,7.30
2011,08,16,04,23,7.30
2011,08,16,04,24,7.30
2011,08,16,04,25,7.30
2011,08,16,04,26,7.30
2011,08,16,04,27,7.30
2011,08,16,04,28,7.30
2011,08,16,04,29,7.30
2011,08,16,04,30,7.30
2011,08,16,04,31,7.30
2011,08,16,04,32,7.30
2011,08,16,04,33,7.30
2011,08,16,04,34,7.30
2011,08,16,04,35,7.30
2011,08,16,04,36,7.30
2011,08,16,04,37,7.30
2011,08,16,04,38,7.30
2011,08,16,04,39,7.30
2011,08,16,04,40,7.30
2011,08,16,04,41,7.30
2011,08,16,04,42,7.30
2011,08,16,04,43,7.30
2011,08,16,04,44,7.30
2011,08,16,04,45,7.30
2011,08,16,04,46,7.30
2011,08,16,04,47,7.30
2011,08,16,04,48,7.30
2011,08,16,04,49,7.20
2011,08,16,04,50,7.20
2011,08,16,04,51,7.20
2011,08,16,04,52,7.20
2011,08,16,04,53,7.20
2011,08,16,04,54,7.20
2011,08,16,04,55,7.20
2011,08,16,04,56,7.20
2011,08,16,04,57,7.10
2011,08,16,04,58,7.10
2011,08,16,04,59,7.10
2011,08,16,05,00,7.10
2011,08,16,05,01,7.10
2011,08,16,05,02,7.10
2011,08,16,05,03,7.10
2011,08,16,05,04,7.10
2011,08,16,05,05,7.10
2011,08,16,05,06,7.00
2011,08,16,05,07,7.00
2011,08,16,05,08,7.00
2011,08,16,05,09,7.00
2011,08,16,05,10,7.00
2011,08,16,05,11,7.00
2011,08,16,05,12,7.00
2011,08,16,05,13,7.00
2011,08,16,05,14,7.00
2011,08,16,05,15,7.00
2011,08,16,05,16,6.90
2011,08,16,05,17,6.90
2011,08,16,05,18,6.90
2011,08,16,05,19,6.90
2011,08,16,05,20,6.90
2011,08,16,05,21,6.90
2011,08,16,05,22,6.80
2011,08,16,05,23,6.80
2011,08,16,05,24,6.80
2011,08,16,05,25,6.80
2011,08,16,05,26,6.80
2011,08,16,05,27,6.80
2011,08,16,05,28,6.80
2011,08,16,05,29,6.70
2011,08,16,05,30,6.70
2011,08,16,05,31,6.70
2011,08,16,05,32,6.70
2011,08,16,05,33,6.70
2011,08,16,05,34,6.70
2011,08,16,05,35,6.70
2011,08,16,05,36,6.70
2011,08,16,05,37,6.70
2011,08,16,05,38,6.70
2011,08,16,05,39,6.70
2011,08,16,05,40,6.70
2011,08,16,05,41,6.70
2011,08,16,05,42,6.70
2011,08,16,05,43,6.70
2011,08,16,05,44,6.60
2011,08,16,05,45,6.60
2011,08,16,05,46,6.60
2011,08,16,05,47,6.60
2011,08,16,05,48,6.60
2011,08,16,05,49,6.60
2011,08,16,05,50,6.60
2011,08,16,05,51,6.60
2011,08,16,05,52,6.60
2011,08,16,05,53,6.60
2011,08,16,05,54,6.60
2011,08,16,05,55,6.60
2011,08,16,05,56,6.60
2011,08,16,05,57,6.60
2011,08,16,05,58,6.60
2011,08,16,05,59,6.60
2011,08,16,06,00,6.60
2011,08,16,06,01,6.60
2011,08,16,06,02,6.60
2011,08,16,06,03,6.60
2011,08,16,06,04,6.60
2011,08,16,06,05,6.60
2011,08,16,06,06,6.60
2011,08,16,06,07,6.60
2011,08,16,06,08,6.60
2011,08,16,06,09,6.60
2011,08,16,06,10,6.60
2011,08,16,06,11,6.60
2011,08,16,06,12,6.60
2011,08,16,06,13,6.60
2011,08,16,06,14,6.60
2011,08,16,06,15,6.60
2011,08,16,06,16,6.60
2011,08,16,06,17,6.60
2011,08,16,06,18,6.60
2011,08,16,06,19,6.60
2011,08,16,06,20,6.60
2011,08,16,06,21,6.60
2011,08,16,06,22,6.60
2011,08,16,06,23,6.60
2011,08,16,06,24,6.60
2011,08,16,06,25,6.60
2011,08,16,06,26,6.60
2011,08,16,06,27,6.60
2011,08,16,06,28,6.60
2011,08,16,06,29,6.60
2011,08,16,06,30,6.60
2011,08,16,06,31,6.60
2011,08,16,06,32,6.60
2011,08,16,06,33,6.60
2011,08,16,06,34,6.60
2011,08,16,06,35,6.60
2011,08,16,06,36,6.60
2011,08,16,06,37,6.60
2011,08,16,06,38,6.60
2011,08,16,06,39,6.60
2011,08,16,06,40,6.60
2011,08,16,06,41,6.60
2011,08,16,06,42,6.60
2011,08,16,06,43,6.60
2011,08,16,06,44,6.60
2011,08,16,06,45,6.60
2011,08,16,06,46,6.60
2011,08,16,06,47,6.60
2011,08,16,06,48,6.60
2011,08,16,06,49,6.60
2011,08,16,06,50,6.60
2011,08,16,06,51,6.60
2011,08,16,06,52,6.60
2011,08,16,06,53,6.60
2011,08,16,06,54,6.60
2011,08,16,06,55,6.60
2011,08,16,06,56,6.60
2011,08,16,06,57,6.60
2011,08,16,06,58,6.60
2011,08,16,06,59,6.60
2011,08,16,07,00,6.60
2011,08,16,07,01,6.60
2011,08,16,07,02,6.60
2011,08,16,07,03,6.60
2011,08,16,07,04,6.60
2011,08,16,07,05,6.60
2011,08,16,07,06,6.60
2011,08,16,07,07,6.60
2011,08,16,07,08,6.60
2011,08,16,07,09,6.60
2011,08,16,07,10,6.60
2011,08,16,07,11,6.60
2011,08,16,07,12,6.60
2011,08,16,07,13,6.60
2011,08,16,07,14,6.60
2011,08,16,07,15,6.60
2011,08,16,07,16,6.60
2011,08,16,07,17,6.60
2011,08,16,07,18,6.60
2011,08,16,07,19,6.70
2011,08,16,07,20,6.70
2011,08,16,07,21,6.80
2011,08,16,07,22,6.80
2011,08,16,07,23,6.90
2011,08,16,07,24,7.00
2011,08,16,07,25,7.10
2011,08,16,07,26,7.20
2011,08,16,07,27,7.30
2011,08,16,07,28,7.40
2011,08,16,07,29,7.50
2011,08,16,07,30,7.50
2011,08,16,07,31,7.60
2011,08,16,07,32,7.70
2011,08,16,07,33,7.80
2011,08,16,07,34,7.90
2011,08,16,07,35,7.90
2011,08,16,07,36,8.00
2011,08,16,07,37,8.10
2011,08,16,07,38,8.10
2011,08,16,07,39,8.20
2011,08,16,07,40,8.20
2011,08,16,07,41,8.30
2011,08,16,07,42,8.50
2011,08,16,07,43,8.50
2011,08,16,07,44,8.60
2011,08,16,07,45,8.70
2011,08,16,07,46,8.80
2011,08,16,07,47,8.90
2011,08,16,07,48,9.00
2011,08,16,07,49,9.20
2011,08,16,07,50,9.30
2011,08,16,07,51,9.40
2011,08,16,07,52,9.60
2011,08,16,07,53,9.70
2011,08,16,07,54,9.90
2011,08,16,07,55,10.00
2011,08,16,07,56,10.10
2011,08,16,07,57,10.40
2011,08,16,07,58,10.70
2011,08,16,07,59,10.90
2011,08,16,08,00,11.20
2011,08,16,08,01,11.40
2011,08,16,08,02,11.60
2011,08,16,08,03,11.80
2011,08,16,08,04,12.00
2011,08,16,08,05,12.20
2011,08,16,08,06,12.40
2011,08,16,08,07,12.50
2011,08,16,08,08,12.70
2011,08,16,08,09,12.80
2011,08,16,08,10,13.00
2011,08,16,08,11,13.10
2011,08,16,08,12,13.30
2011,08,16,08,13,13.50
2011,08,16,08,14,13.60
2011,08,16,08,15,13.70
2011,08,16,08,16,13.80
2011,08,16,08,17,13.90
2011,08,16,08,18,14.00
2011,08,16,08,19,14.10
2011,08,16,08,20,14.20
2011,08,16,08,21,14.40
2011,08,16,08,22,14.50
2011,08,16,08,23,14.70
2011,08,16,08,24,14.80
2011,08,16,08,25,14.90
2011,08,16,08,26,15.00
2011,08,16,08,27,15.20
2011,08,16,08,28,15.30
2011,08,16,08,29,15.30
2011,08,16,08,30,15.40
2011,08,16,08,31,15.50
2011,08,16,08,32,15.50
2011,08,16,08,33,15.60
2011,08,16,08,34,15.70
2011,08,16,08,35,15.70
2011,08,16,08,36,15.80
2011,08,16,08,37,15.90
2011,08,16,08,38,15.90
2011,08,16,08,39,16.00
2011,08,16,08,40,16.10
2011,08,16,08,41,16.10
2011,08,16,08,42,16.10
2011,08,16,08,43,16.10
2011,08,16,08,44,16.10
2011,08,16,08,45,16.10
2011,08,16,08,46,16.10
2011,08,16,08,47,16.20
2011,08,16,08,48,16.20
2011,08,16,08,49,16.30
2011,08,16,08,50,16.40
2011,08,16,08,51,16.40
2011,08,16,08,52,16.50
2011,08,16,08,53,16.60
2011,08,16,08,54,16.70
2011,08,16,08,55,16.80
2011,08,16,08,56,16.90
2011,08,16,08,57,16.90
2011,08,16,08,58,17.00
2011,08,16,08,59,17.20
2011,08,16,09,00,17.30
2011,08,16,09,01,17.30
2011,08,16,09,02,17.40
2011,08,16,09,03,17.50
2011,08,16,09,04,17.60
2011,08,16,09,05,17.70
2011,08,16,09,06,17.70
2011,08,16,09,07,17.60
2011,08,16,09,08,17.70
2011,08,16,09,09,17.70
2011,08,16,09,10,17.60
2011,08,16,09,11,17.60
2011,08,16,09,12,17.60
2011,08,16,09,13,17.60
2011,08,16,09,14,17.50
2011,08,16,09,15,17.50
2011,08,16,09,16,17.40
2011,08,16,09,17,17.50
2011,08,16,09,18,17.50
2011,08,16,09,19,17.50
2011,08,16,09,20,17.50
2011,08,16,09,21,17.50
2011,08,16,09,22,17.60
2011,08,16,09,23,17.70
2011,08,16,09,24,17.70
2011,08,16,09,25,17.80
2011,08,16,09,26,17.80
2011,08,16,09,27,17.90
2011,08,16,09,28,17.90
2011,08,16,09,29,18.00
2011,08,16,09,30,18.10
2011,08,16,09,31,18.10
2011,08,16,09,32,18.10
2011,08,16,09,33,18.20
2011,08,16,09,34,18.20
2011,08,16,09,35,18.20
2011,08,16,09,36,18.30
2011,08,16,09,37,18.30
2011,08,16,09,38,18.50
2011,08,16,09,39,18.60
2011,08,16,09,40,18.70
2011,08,16,09,41,18.90
2011,08,16,09,42,19.00
2011,08,16,09,43,19.10
2011,08,16,09,44,19.20
2011,08,16,09,45,19.20
2011,08,16,09,46,19.20
2011,08,16,09,47,19.10
2011,08,16,09,48,19.10
2011,08,16,09,49,19.10
2011,08,16,09,50,19.10
2011,08,16,09,51,19.10
2011,08,16,09,52,19.30
2011,08,16,09,53,19.40
2011,08,16,09,54,19.50
2011,08,16,09,55,19.60
2011,08,16,09,56,19.70
2011,08,16,09,57,19.80
2011,08,16,09,58,19.90
2011,08,16,09,59,20.00
2011,08,16,10,00,20.20
2011,08,16,10,01,20.20
2011,08,16,10,02,20.30
2011,08,16,10,03,20.40
2011,08,16,10,04,20.50
2011,08,16,10,05,20.50
2011,08,16,10,06,20.60
2011,08,16,10,07,20.60
2011,08,16,10,08,20.60
2011,08,16,10,09,20.60
2011,08,16,10,10,20.60
2011,08,16,10,11,20.60
2011,08,16,10,12,20.60
2011,08,16,10,13,20.60
2011,08,16,10,14,20.60
2011,08,16,10,15,20.50
2011,08,16,10,16,20.40
2011,08,16,10,17,20.30
2011,08,16,10,18,20.20
2011,08,16,10,19,20.20
2011,08,16,10,20,20.20
2011,08,16,10,21,20.30
2011,08,16,10,22,20.30
2011,08,16,10,23,20.20
2011,08,16,10,24,20.20
2011,08,16,10,25,20.20
2011,08,16,10,26,20.20
2011,08,16,10,27,20.20
2011,08,16,10,28,20.20
2011,08,16,10,29,20.20
2011,08,16,10,30,20.30
2011,08,16,10,31,20.30
2011,08,16,10,32,20.30
2011,08,16,10,33,20.30
2011,08,16,10,34,20.40
2011,08,16,10,35,20.40
2011,08,16,10,36,20.50
2011,08,16,10,37,20.50
2011,08,16,10,38,20.50
2011,08,16,10,39,20.50
2011,08,16,10,40,20.60
2011,08,16,10,41,20.60
2011,08,16,10,42,20.60
2011,08,16,10,43,20.60
2011,08,16,10,44,20.60
2011,08,16,10,45,20.60
2011,08,16,10,46,20.50
2011,08,16,10,47,20.50
2011,08,16,10,48,20.60
2011,08,16,10,49,20.60
2011,08,16,10,50,20.50
2011,08,16,10,51,20.30
2011,08,16,10,52,20.20
2011,08,16,10,53,20.20
2011,08,16,10,54,20.20
2011,08,16,10,55,20.20
2011,08,16,10,56,20.30
2011,08,16,10,57,20.40
2011,08,16,10,58,20.50
2011,08,16,10,59,20.60
2011,08,16,11,00,20.70
2011,08,16,11,01,20.80
2011,08,16,11,02,20.90
2011,08,16,11,03,20.90
2011,08,16,11,04,20.90
2011,08,16,11,05,20.90
2011,08,16,11,06,21.00
2011,08,16,11,07,21.10
2011,08,16,11,08,21.20
2011,08,16,11,09,21.30
2011,08,16,11,10,21.50
2011,08,16,11,11,21.60
2011,08,16,11,12,21.70
2011,08,16,11,13,21.80
2011,08,16,11,14,21.90
2011,08,16,11,15,21.90
2011,08,16,11,16,22.00
2011,08,16,11,17,21.90
2011,08,16,11,18,21.80
2011,08,16,11,19,21.50
2011,08,16,11,20,21.20
2011,08,16,11,21,21.00
2011,08,16,11,22,20.90
2011,08,16,11,23,20.80
2011,08,16,11,24,20.70
2011,08,16,11,25,20.60
2011,08,16,11,26,20.60
2011,08,16,11,27,20.60
2011,08,16,11,28,20.50
2011,08,16,11,29,20.50
2011,08,16,11,30,20.60
2011,08,16,11,31,20.70
2011,08,16,11,32,20.80
2011,08,16,11,33,20.80
2011,08,16,11,34,20.90
2011,08,16,11,35,20.80
2011,08,16,11,36,20.80
2011,08,16,11,37,20.80
2011,08,16,11,38,20.90
2011,08,16,11,39,21.00
2011,08,16,11,40,21.10
2011,08,16,11,41,20.90
2011,08,16,11,42,20.90
2011,08,16,11,43,20.90
2011,08,16,11,44,20.90
2011,08,16,11,45,20.90
2011,08,16,11,46,21.00
2011,08,16,11,47,21.20
2011,08,16,11,48,21.30
2011,08,16,11,49,21.40
2011,08,16,11,50,21.30
2011,08,16,11,51,21.30
2011,08,16,11,52,21.30
2011,08,16,11,53,21.30
2011,08,16,11,54,21.40
2011,08,16,11,55,21.40
2011,08,16,11,56,21.40
2011,08,16,11,57,21.30
2011,08,16,11,58,21.30
2011,08,16,11,59,21.30
2011,08,16,12,00,21.30
2011,08,16,12,01,21.30
2011,08,16,12,02,21.30
2011,08,16,12,03,21.30
2011,08,16,12,04,21.30
2011,08,16,12,05,21.30
2011,08,16,12,06,21.30
2011,08,16,12,07,21.30
2011,08,16,12,08,21.40
2011,08,16,12,09,21.50
2011,08,16,12,10,21.60
2011,08,16,12,11,21.70
2011,08,16,12,12,21.80
2011,08,16,12,13,21.90
2011,08,16,12,14,21.90
2011,08,16,12,15,22.00
2011,08,16,12,16,22.00
2011,08,16,12,17,22.00
2011,08,16,12,18,22.00
2011,08,16,12,19,22.00
2011,08,16,12,20,22.00
2011,08,16,12,21,21.90
2011,08,16,12,22,21.90
2011,08,16,12,23,21.80
2011,08,16,12,24,21.90
2011,08,16,12,25,21.90
2011,08,16,12,26,22.00
2011,08,16,12,27,22.10
2011,08,16,12,28,22.20
2011,08,16,12,29,22.20
2011,08,16,12,30,22.20
2011,08,16,12,31,22.20
2011,08,16,12,32,22.20
2011,08,16,12,33,22.20
2011,08,16,12,34,22.20
2011,08,16,12,35,22.20
2011,08,16,12,36,22.20
2011,08,16,12,37,22.20
2011,08,16,12,38,22.20
2011,08,16,12,39,22.10
2011,08,16,12,40,22.10
2011,08,16,12,41,22.00
2011,08,16,12,42,22.00
2011,08,16,12,43,21.90
2011,08,16,12,44,21.80
2011,08,16,12,45,21.80
2011,08,16,12,46,21.80
2011,08,16,12,47,21.80
2011,08,16,12,48,21.90
2011,08,16,12,49,21.90
2011,08,16,12,50,22.00
2011,08,16,12,51,22.00
2011,08,16,12,52,22.10
2011,08,16,12,53,22.10
2011,08,16,12,54,22.10
2011,08,16,12,55,22.00
2011,08,16,12,56,22.00
2011,08,16,12,57,22.00
2011,08,16,12,58,22.00
2011,08,16,12,59,21.90
2011,08,16,13,00,22.00
2011,08,16,13,01,22.10
2011,08,16,13,02,22.10
2011,08,16,13,03,22.20
2011,08,16,13,04,22.20
2011,08,16,13,05,22.30
2011,08,16,13,06,22.30
2011,08,16,13,07,22.30
2011,08,16,13,08,22.20
2011,08,16,13,09,22.10
2011,08,16,13,10,22.00
2011,08,16,13,11,22.00
2011,08,16,13,12,22.10
2011,08,16,13,13,22.20
2011,08,16,13,14,22.10
2011,08,16,13,15,22.00
2011,08,16,13,16,21.90
2011,08,16,13,17,21.90
2011,08,16,13,18,21.70
2011,08,16,13,19,21.70
2011,08,16,13,20,21.80
2011,08,16,13,21,21.90
2011,08,16,13,22,21.90
2011,08,16,13,23,22.00
2011,08,16,13,24,22.00
2011,08,16,13,25,22.10
2011,08,16,13,26,22.20
2011,08,16,13,27,22.30
2011,08,16,13,28,22.50
2011,08,16,13,29,22.50
2011,08,16,13,30,22.40
2011,08,16,13,31,22.40
2011,08,16,13,32,22.30
2011,08,16,13,33,22.30
2011,08,16,13,34,22.30
2011,08,16,13,35,22.30
2011,08,16,13,36,22.20
2011,08,16,13,37,22.10
2011,08,16,13,38,22.20
2011,08,16,13,39,22.30
2011,08,16,13,40,22.40
2011,08,16,13,41,22.50
2011,08,16,13,42,22.50
2011,08,16,13,43,22.60
2011,08,16,13,44,22.50
2011,08,16,13,45,22.50
2011,08,16,13,46,22.50
2011,08,16,13,47,22.40
2011,08,16,13,48,22.20
2011,08,16,13,49,22.00
2011,08,16,13,50,21.90
2011,08,16,13,51,21.90
2011,08,16,13,52,22.00
2011,08,16,13,53,22.20
2011,08,16,13,54,22.20
2011,08,16,13,55,22.20
2011,08,16,13,56,22.20
2011,08,16,13,57,22.30
2011,08,16,13,58,22.40
2011,08,16,13,59,22.60
2011,08,16,14,00,22.70
2011,08,16,14,01,22.50
2011,08,16,14,02,22.40
2011,08,16,14,03,22.20
2011,08,16,14,04,22.10
2011,08,16,14,05,22.10
2011,08,16,14,06,22.10
2011,08,16,14,07,22.10
2011,08,16,14,08,22.00
2011,08,16,14,09,22.00
2011,08,16,14,10,22.00
2011,08,16,14,11,21.90
2011,08,16,14,12,21.80
2011,08,16,14,13,21.70
2011,08,16,14,14,21.80
2011,08,16,14,15,21.90
2011,08,16,14,16,22.00
2011,08,16,14,17,22.20
2011,08,16,14,18,22.30
2011,08,16,14,19,22.40
2011,08,16,14,20,22.40
2011,08,16,14,21,22.40
2011,08,16,14,22,22.40
2011,08,16,14,23,22.50
2011,08,16,14,24,22.50
2011,08,16,14,25,22.50
2011,08,16,14,26,22.50
2011,08,16,14,27,22.60
2011,08,16,14,28,22.50
2011,08,16,14,29,22.60
2011,08,16,14,30,22.60
2011,08,16,14,31,22.70
2011,08,16,14,32,22.80
2011,08,16,14,33,22.80
2011,08,16,14,34,22.90
2011,08,16,14,35,22.90
2011,08,16,14,36,22.90
2011,08,16,14,37,22.90
2011,08,16,14,38,22.90
2011,08,16,14,39,22.80
2011,08,16,14,40,22.70
2011,08,16,14,41,22.70
2011,08,16,14,42,22.60
2011,08,16,14,43,22.60
2011,08,16,14,44,22.60
2011,08,16,14,45,22.50
2011,08,16,14,46,22.60
2011,08,16,14,47,22.60
2011,08,16,14,48,22.70
2011,08,16,14,49,22.80
2011,08,16,14,50,22.90
2011,08,16,14,51,23.00
2011,08,16,14,52,23.00
2011,08,16,14,53,23.00
2011,08,16,14,54,23.10
2011,08,16,14,55,23.30
2011,08,16,14,56,23.30
2011,08,16,14,57,23.30
2011,08,16,14,58,23.10
2011,08,16,14,59,22.90
2011,08,16,15,00,22.90
2011,08,16,15,01,22.80
2011,08,16,15,02,22.80
2011,08,16,15,03,22.70
2011,08,16,15,04,22.60
2011,08,16,15,05,22.50
2011,08,16,15,06,22.50
2011,08,16,15,07,22.40
2011,08,16,15,08,22.40
2011,08,16,15,09,22.50
2011,08,16,15,10,22.50
2011,08,16,15,11,22.60
2011,08,16,15,12,22.70
2011,08,16,15,13,22.70
2011,08,16,15,14,22.60
2011,08,16,15,15,22.60
2011,08,16,15,16,22.50
2011,08,16,15,17,22.40
2011,08,16,15,18,22.40
2011,08,16,15,19,22.40
2011,08,16,15,20,22.50
2011,08,16,15,21,22.40
2011,08,16,15,22,22.40
2011,08,16,15,23,22.30
2011,08,16,15,24,22.20
2011,08,16,15,25,22.10
2011,08,16,15,26,22.10
2011,08,16,15,27,22.10
2011,08,16,15,28,22.00
2011,08,16,15,29,22.10
2011,08,16,15,30,22.10
2011,08,16,15,31,22.20
2011,08,16,15,32,22.30
2011,08,16,15,33,22.30
2011,08,16,15,34,22.30
2011,08,16,15,35,22.30
2011,08,16,15,36,22.40
2011,08,16,15,37,22.50
2011,08,16,15,38,22.50
2011,08,16,15,39,22.40
2011,08,16,15,40,22.30
2011,08,16,15,41,22.30
2011,08,16,15,42,22.30
2011,08,16,15,43,22.30
2011,08,16,15,44,22.40
2011,08,16,15,45,22.40
2011,08,16,15,46,22.50
2011,08,16,15,47,22.60
2011,08,16,15,48,22.70
2011,08,16,15,49,22.80
2011,08,16,15,50,22.80
2011,08,16,15,51,22.90
2011,08,16,15,52,22.70
2011,08,16,15,53,22.60
2011,08,16,15,54,22.50
2011,08,16,15,55,22.50
2011,08,16,15,56,22.50
2011,08,16,15,57,22.40
2011,08,16,15,58,22.30
2011,08,16,15,59,22.30
2011,08,16,16,00,22.10
2011,08,16,16,01,22.10
2011,08,16,16,02,22.20
2011,08,16,16,03,22.30
2011,08,16,16,04,22.40
2011,08,16,16,05,22.50
2011,08,16,16,06,22.50
2011,08,16,16,07,22.50
2011,08,16,16,08,22.60
2011,08,16,16,09,22.60
2011,08,16,16,10,22.40
2011,08,16,16,11,22.30
2011,08,16,16,12,22.10
2011,08,16,16,13,22.00
2011,08,16,16,14,21.90
2011,08,16,16,15,21.80
2011,08,16,16,16,21.70
2011,08,16,16,17,21.70
2011,08,16,16,18,21.70
2011,08,16,16,19,21.70
2011,08,16,16,20,21.70
2011,08,16,16,21,21.70
2011,08,16,16,22,21.70
2011,08,16,16,23,21.80
2011,08,16,16,24,21.80
2011,08,16,16,25,21.90
2011,08,16,16,26,21.90
2011,08,16,16,27,21.90
2011,08,16,16,28,21.80
2011,08,16,16,29,21.80
2011,08,16,16,30,21.90
2011,08,16,16,31,22.00
2011,08,16,16,32,22.10
2011,08,16,16,33,22.10
2011,08,16,16,34,22.10
2011,08,16,16,35,22.10
2011,08,16,16,36,22.10
2011,08,16,16,37,22.00
2011,08,16,16,38,22.00
2011,08,16,16,39,22.00
2011,08,16,16,40,22.10
2011,08,16,16,41,22.10
2011,08,16,16,42,22.10
2011,08,16,16,43,22.20
2011,08,16,16,44,22.20
2011,08,16,16,45,22.30
2011,08,16,16,46,22.30
2011,08,16,16,47,22.30
2011,08,16,16,48,22.20
2011,08,16,16,49,22.10
2011,08,16,16,50,22.10
2011,08,16,16,51,22.30
2011,08,16,16,52,22.30
2011,08,16,16,53,22.30
2011,08,16,16,54,22.30
2011,08,16,16,55,22.40
2011,08,16,16,56,22.40
2011,08,16,16,57,22.40
2011,08,16,16,58,22.40
2011,08,16,16,59,22.40
2011,08,16,17,00,22.30
2011,08,16,17,01,22.30
2011,08,16,17,02,22.30
2011,08,16,17,03,22.30
2011,08,16,17,04,22.30
2011,08,16,17,05,22.40
2011,08,16,17,06,22.40
2011,08,16,17,07,22.50
2011,08,16,17,08,22.50
2011,08,16,17,09,22.60
2011,08,16,17,10,22.50
2011,08,16,17,11,22.50
2011,08,16,17,12,22.50
2011,08,16,17,13,22.50
2011,08,16,17,14,22.50
2011,08,16,17,15,22.40
2011,08,16,17,16,22.40
2011,08,16,17,17,22.50
2011,08,16,17,18,22.50
2011,08,16,17,19,22.40
2011,08,16,17,20,22.40
2011,08,16,17,21,22.40
2011,08,16,17,22,22.30
2011,08,16,17,23,22.20
2011,08,16,17,24,22.20
2011,08,16,17,25,22.20
2011,08,16,17,26,22.10
2011,08,16,17,27,22.10
2011,08,16,17,28,22.20
2011,08,16,17,29,22.30
2011,08,16,17,30,22.40
2011,08,16,17,31,22.50
2011,08,16,17,32,22.60
2011,08,16,17,33,22.60
2011,08,16,17,34,22.60
2011,08,16,17,35,22.60
2011,08,16,17,36,22.70
2011,08,16,17,37,22.60
2011,08,16,17,38,22.60
2011,08,16,17,39,22.50
2011,08,16,17,40,22.50